Weather Roundup
Issued by NWS Springfield, MO

Home | Current Version | Previous Version | Text Only | Print | Product List | Glossary On
Versions: 1 2 3 4 5 6 7 8 9 10 11 12 13 14 15 16 17 18 19 20 21 22 23 24 25 26 27 28 29 30 31 32 33 34 35 36 37 38 39 40 41 42 43 44 45 46 47 48 49 50
000
NZUS99 KSGF 071107
HRRSGF

HOURLY WEATHER
NATIONAL WEATHER SERVICE SPRINGFIELD MO
500 AM CST WED DEC 07 2016

......SGF CWA......

CITY           SKY/WX    TMP DP  RH WIND       PRES   REMARKS
SPRINGFIELD    CLOUDY    28  17  63 NE5       30.14S WCI  23
JOPLIN         CLOUDY    30  20  66 E6        30.17R WCI  24
WEST PLAINS    CLEAR     26  18  71 NE5       30.16F WCI  20
ROLLA          CLOUDY    27  20  75 CALM      30.16S
OSAGE BEACH    CLOUDY    27  22  81 CALM      30.18F
BRANSON        CLEAR     27  18  69 CALM      30.17R

......SURROUNDING SGF CWA......

CITY           SKY/WX    TMP DP  RH WIND       PRES   REMARKS
CHANUTE        CLOUDY    34  17  50 NE8       30.14R WCI  27
PARSONS        CLOUDY    35  18  49 VRB5      30.17R WCI  31
COFFEYVILLE    CLOUDY    33  21  61 NE5       30.17R WCI  29
EMPORIA        CLOUDY    26  15  63 NE7       30.14F WCI  18
GROVE OK       PTCLDY    28  23  80 CALM      30.18S
ROGERS AR      MOCLDY    28  19  69 NE6       30.15R WCI  22
SILOAM SPRINGS CLOUDY    30  18  59 E7        30.14S WCI  23
HARRISON AR    CLEAR     25  21  85 CALM      30.15R
NEAR YELLVILLE CLEAR     30  19  64 CALM      30.15R

......KANSAS AND MISSOURI......

CITY           SKY/WX    TMP DP  RH WIND       PRES   REMARKS
KANSAS CTY INT CLOUDY    27  14  58 N5        30.18S WCI  22
DOWNTOWN KC    CLOUDY    32  14  47 N6        30.18F WCI  26
COLUMBIA       CLOUDY    30  16  56 N10       30.16F WCI  21
SEDALIA        CLOUDY    32  15  49 N12       30.16F WCI  23
ST JOSEPH      CLOUDY    25  15  66 N6        30.20S WCI  18
ST LOUIS       MOCLDY    32  16  51 W7        30.19R WCI  26
SPIRIT OF STL  PTCLDY    29  19  66 W5        30.19S WCI  24
KIRKSVILLE     CLOUDY    27  13  55 W6        30.16S WCI  20
WICHITA        CLOUDY    34  16  47 E7        30.12R WCI  28
TOPEKA         CLOUDY    29  15  56 N6        30.17F WCI  23
OLATHE         CLOUDY    30  11  45 NE13      30.14F WCI  20

......TENNESSEE......

CITY           SKY/WX    TMP DP  RH WIND       PRES   REMARKS
MEMPHIS        CLOUDY    42  38  85 NE8       30.14R
NASHVILLE      MOCLDY    37  30  75 N7        30.14R WCI  32

......ARKANSAS.......

CITY           SKY/WX    TMP DP  RH WIND       PRES   REMARKS
FAYETTEVILLE   MOCLDY    25  22  88 VRB3      30.15R
FT SMITH       CLOUDY    40  29  64 E6        30.13R
LITTLE ROCK    CLOUDY    41  34  76 NE10      30.14F

......OKLAHOMA.......

CITY           SKY/WX    TMP DP  RH WIND       PRES   REMARKS
TULSA          MOCLDY    34  19  54 E6        30.11F WCI  29
PONCA CITY     CLOUDY    36  16  44 E6        30.13R WCI  31
MCALESTER      CLOUDY    40  27  59 NE5       30.09S
OKLAHOMA CITY  PTCLDY    31  20  63 NE9       30.06F WCI  23

......IOWA............

CITY           SKY/WX    TMP DP  RH WIND       PRES   REMARKS
DES MOINES     MOCLDY    20  10  65 NW10      30.16R WCI   9
QUAD CITIES    CLOUDY    25  14  63 W15G26    30.10S WCI  13

......ILLINOIS........

CITY           SKY/WX    TMP DP  RH WIND       PRES   REMARKS
QUINCY         CLOUDY    29  16  58 NW9       30.16S WCI  20
CHICAGO        MOCLDY    25  17  72 W18       30.03R WCI  11




USA.gov is the U.S. government's official web portal to all federal, state and local government web resources and services.